Regional Weather Roundup
Issued by NWS

Home | Current Version | Previous Version | Text Only | Print | Product List | Glossary On
Versions: 1 2 3 4 5 6 7 8 9 10 11 12 13 14 15 16 17 18 19 20 21 22 23 24 25 26 27 28 29 30 31 32 33 34 35 36 37 38 39 40 41 42 43 44 45 46 47 48 49 50
000
ASUS43 KMKX 140020
RWRWI

WISCONSIN REGIONAL WEATHER ROUNDUP
NATIONAL WEATHER SERVICE MILWAUKEE/SULLIVAN WI
700 PM CDT SAT AUG 13 2022

NOTE: "FAIR" INDICATES FEW OR NO CLOUDS BELOW 12,000 FEET WITH NO
SIGNIFICANT WEATHER AND/OR OBSTRUCTIONS TO VISIBILITY.

WIZ001-002-006>008-014>016-023>028-140100-
NORTHWEST WISCONSIN

CITY           SKY/WX    TMP DP  RH WIND       PRES   REMARKS
SUPERIOR ARPT  MOSUNNY   61  56  84 NE5       30.07R
6HR MIN TEMP:  60; 6HR MAX TEMP:  64;

ASHLAND        CLOUDY    62  58  86 NE9       30.06R
6HR MIN TEMP:  61; 6HR MAX TEMP:  63;

HAYWARD        CLOUDY    61  58  90 N10       30.04S
6HR MIN TEMP:  61; 6HR MAX TEMP:  64;

SIREN          CLOUDY    63  57  79 NE5       30.05R
6HR MIN TEMP:  63; 6HR MAX TEMP:  66;

CUMBERLAND     CLOUDY    63  55  77 N8        30.03S
RICE LAKE        N/A     64  57  79 N8        30.04R
6HR MIN TEMP:  64; 6HR MAX TEMP:  68;

CHETEK         CLOUDY    65  59  80 N7        30.03R
6HR MIN TEMP:  66; 6HR MAX TEMP:  67;

LADYSMITH      CLOUDY    61  61 100 N6        30.04S
6HR MIN TEMP:  61; 6HR MAX TEMP:  64;

EAU CLAIRE     CLOUDY    65  59  81 N8        30.00R
6HR MIN TEMP:  65; 6HR MAX TEMP:  68;

MENOMONIE      CLOUDY    67  60  75 N6        30.00F
6HR MIN TEMP:  67; 6HR MAX TEMP:  69;

NEW RICHMOND   CLOUDY    64  56  75 N12       30.03S
6HR MIN TEMP:  64; 6HR MAX TEMP:  67;

OSCEOLA        CLOUDY    69  62  78 N6        30.05F
6HR MIN TEMP:  69; 6HR MAX TEMP:  72;

$$

WIZ003>005-009-010-017-018-140100-
NORTH CENTRAL WISCONSIN

CITY           SKY/WX    TMP DP  RH WIND       PRES   REMARKS
MANITOWISH WTR DRIZZLE   60  60 100 N6        30.03F
6HR MIN TEMP:  60; 6HR MAX TEMP:  63;

ARBOR VITAE    CLOUDY    61  60  95 E3        30.02S
6HR MIN TEMP:  60; 6HR MAX TEMP:  62;

WOODRUFF       CLOUDY    61  60  95 E3        30.02S
6HR MIN TEMP:  60; 6HR MAX TEMP:  62;

RHINELANDER    CLOUDY    61  59  93 E7        30.02F FOG
6HR MIN TEMP:  61; 6HR MAX TEMP:  63; 6HR PCP: TRACE;

EAGLE RIVER    DRIZZLE   61  61 100 E5        30.02F
6HR MIN TEMP:  60; 6HR MAX TEMP:  63;

LAND O LAKES   CLOUDY    61  60  97 CALM      30.05S
6HR MIN TEMP:  60; 6HR MAX TEMP:  62;

PHILLIPS       CLOUDY    60  60 100 CALM      30.02R FOG
6HR MIN TEMP:  60; 6HR MAX TEMP:  62;

TOMAHAWK       CLOUDY    62  60  92 CALM      30.01S
6HR MIN TEMP:  62; 6HR MAX TEMP:  64;

MEDFORD        CLOUDY    62  62 100 NE6       30.00R
6HR MIN TEMP:  62; 6HR MAX TEMP:  65;

MERRILL        DRIZZLE   62  62 100 E3        29.99S
6HR MIN TEMP:  62; 6HR MAX TEMP:  64;

$$

WIZ029-030-035-036-043>047-140100-
CENTRAL WISCONSIN

CITY           SKY/WX    TMP DP  RH WIND       PRES   REMARKS
WAUSAU         CLOUDY    65  61  87 N6        29.97R FOG
6HR MIN TEMP:  65; 6HR MAX TEMP:  66;

MOSINEE        CLOUDY    63  61  94 NE7       29.99R FOG
MARSHFIELD     CLOUDY    65  63  93 NE8       29.97S FOG
6HR MIN TEMP:  65; 6HR MAX TEMP:  68;

STEVENS POINT  DRIZZLE   65  62  88 NE6       29.98R
6HR MIN TEMP:  65; 6HR MAX TEMP:  67;

WAUPACA        CLOUDY    67  65  96 E5        29.96R FOG
6HR MIN TEMP:  67; 6HR MAX TEMP:  71;

WAUTOMA        LGT RAIN  67  67 100 E3        29.94S VSB 1
6HR MIN TEMP:  67; 6HR MAX TEMP:  70;

WISC RAPIDS    CLOUDY    67  65  93 NE6       29.96R FOG
6HR MIN TEMP:  67; 6HR MAX TEMP:  69; 6HR PCP:  0.05;

CAMP DOUGLAS   CLOUDY    68  68 100 N5        29.92S
6HR MIN TEMP:  67; 6HR MAX TEMP:  70; 6HR PCP:  0.01;

$$

WIZ011>013-019>022-031-037>040-048>050-140100-
NORTHEAST WISCONSIN

CITY           SKY/WX    TMP DP  RH WIND       PRES   REMARKS
ANTIGO         CLOUDY    60  60 100 NE5       30.02R FOG
6HR MIN TEMP:  60; 6HR MAX TEMP:  61;

SHAWANO        CLOUDY    63  63 100 E7        29.98S FOG
6HR MIN TEMP:  63; 6HR MAX TEMP:  65; 6HR PCP:  0.02;

OCONTO         CLOUDY    61  60  95 SE9       30.01S
STURGEON BAY   CLOUDY    61  58  90 SE10      30.02F
6HR MIN TEMP:  61; 6HR MAX TEMP:  63; 6HR PCP: TRACE;

GREEN BAY      CLOUDY    65  57  75 SE16G24   29.98S
6HR MIN TEMP:  65; 6HR MAX TEMP:  68; 6HR PCP:  0.02;

MANITOWOC      CLOUDY    65  56  72 SE13G20   30.01R
6HR MIN TEMP:  64; 6HR MAX TEMP:  66; 6HR PCP: TRACE;

APPLETON       CLOUDY    64  63  94 E7        29.95S FOG
CLINTONVILLE   DRIZZLE   63  63  97 E7        29.98R FOG
6HR MIN TEMP:  62; 6HR MAX TEMP:  65;

OSHKOSH        CLOUDY    66  65  96 SE8       29.94S FOG
6HR MIN TEMP:  67; 6HR MAX TEMP:  70; 6HR PCP:  0.03;

$$

WIZ032>034-041-042-053>061-140100-
SOUTHWEST WISCONSIN

CITY           SKY/WX    TMP DP  RH WIND       PRES   REMARKS
LA CROSSE      CLOUDY    69  64  84 N8        29.95R
6HR MIN TEMP:  69; 6HR MAX TEMP:  74; 6HR PCP: TRACE;

SPARTA         CLOUDY    68  67  96 N3        29.95S
6HR MIN TEMP:  68; 6HR MAX TEMP:  71; 6HR PCP:  0.03;

VIROQUA          N/A     67  67 100 N8        29.95S
6HR MIN TEMP:  69; 6HR MAX TEMP:  70;

BOSCOBEL       CLOUDY    71  69  93 CALM      29.92S
6HR MIN TEMP:  71; 6HR MAX TEMP:  73;

PRAIRIE DU CHI CLOUDY    72  68  88 CALM      29.92S
6HR MIN TEMP:  71; 6HR MAX TEMP:  75;

PLATTEVILLE    CLOUDY    73  73 100 N6        29.93R
6HR MIN TEMP:  72; 6HR MAX TEMP:  78;

$$

WIZ056-057-062-063-064-067-068-140100-
SOUTH CENTRAL WISCONSIN

CITY           SKY/WX    TMP DP  RH WIND       PRES   REMARKS
REEDSBURG      CLOUDY    68  68 100 CALM      29.93S
6HR MIN TEMP:  68; 6HR MAX TEMP:  70;

BARABOO/DELLS  CLOUDY    67  65  90 CALM      29.94R
6HR MIN TEMP:  68; 6HR MAX TEMP:  69;

LONE ROCK      CLOUDY    71  69  93 CALM      29.92S
6HR MIN TEMP:  70; 6HR MAX TEMP:  74; 6HR PCP:  0.01;

MINERAL POINT  CLOUDY    72  72 100 NE3       29.94R
MADISON        CLOUDY    69  66  90 SE6       29.92S FOG
6HR MIN TEMP:  69; 6HR MAX TEMP:  73; 6HR PCP: TRACE;

MIDDLETON      CLOUDY    70  69  97 SE3       29.93S
6HR MIN TEMP:  70; 6HR MAX TEMP:  73; 6HR PCP:  0.02;

WATERTOWN      CLOUDY    69  64  84 S3        29.94R
6HR MIN TEMP:  70; 6HR MAX TEMP:  73;

MONROE         CLOUDY    71  68  90 CALM      29.91S
6HR MIN TEMP:  64; 6HR MAX TEMP:  76; 6HR PCP:  0.01;

JANESVILLE     CLOUDY    73  73 100 SE3       29.92F
$$

WIZ051-052-058>065-066-070>072-140100-
SOUTHEAST WISCONSIN

CITY           SKY/WX    TMP DP  RH WIND       PRES   REMARKS
MILWAUKEE      CLOUDY    71  62  73 SE9       29.94F
6HR MIN TEMP:  71; 6HR MAX TEMP:  77;

WAUKESHA       CLOUDY    70  61  73 SE12      29.95F
MILWAUKEE/TIMM CLOUDY    72  57  60 SE7       29.95S
RACINE         CLOUDY    71  61  70 S12       29.96F
6HR MIN TEMP:  71; 6HR MAX TEMP:  79;

KENOSHA        CLOUDY    75  62  64 SE6       29.95F
6HR MIN TEMP:  75; 6HR MAX TEMP:  79;

FOND DU LAC    CLOUDY    68  62  81 SE8       29.95S
6HR MIN TEMP:  68; 6HR MAX TEMP:  74; 6HR PCP: TRACE;

SHEBOYGAN      CLOUDY    67  62  84 SE9G21    29.97F
6HR MIN TEMP:  67; 6HR MAX TEMP:  69; 6HR PCP:  0.08;

WEST BEND      CLOUDY    64  63  94 SE8       29.95F
JUNEAU         CLOUDY    69  64  85 CALM      29.95S
6HR MIN TEMP:  69; 6HR MAX TEMP:  74;

$$

LSZ147-162-140100-
LAKE SUPERIOR

STATION/POSITION TIME  TEMP    WIND        PRES    WAVE
                       AIR SEA DIR/SP/G            HT/PER
                 (UTC) (F)     (DEG/KT/KT) (MB)    (FT/S)
W MID LAKE BUOY  0000      54   40/  8/ 10 1017.8
DEVILS ISLAND    0000   60      20/  8/  9 1017.9F
PORT WING        2340   58      20/  5/  6 1017.6F
SAXON HARBOR     2330   62      50/ 12/ 13 1016.3F
$$

LMZ867-665-643>646-140100-
LAKE MICHIGAN

STATION/POSITION TIME  TEMP    WIND        PRES    WAVE
                       AIR SEA DIR/SP


USA.gov is the U.S. government's official web portal to all federal, state and local government web resources and services.